Probability
39 10 13 13 16 6 0 0 0 0 0 0 3 3 3 3 0 0 0 10 16 23 39 52 84 74 74 74 74 74 74 74 77 77 81 81 77 77 77 77 77 77 74 74 68 65 65 65 68
10 6 10 10 3 0 0 0 0 0 0 0 0 3 6 6 6 6 6 13 19 26 35 45 81 77 74 74 77 71 74 77 77 84 81 81 81 81 77 74 77 77 74 68 65 52 45 42 52
3 13 19 13 0 0 0 0 0 0 0 0 0 0 10 13 13 6 6 13 19 23 35 52 77 77 74 71 74 74 74 71 74 77 74 74 74 77 77 77 77 68 68 65 61 42 39 32 35
13 23 19 13 0 0 0 0 3 0 0 0 3 3 6 13 16 10 10 13 19 26 42 55 71 71 74 68 71 71 71 71 77 81 81 74 77 77 77 71 68 65 65 55 52 42 42 35 32
13 19 16 3 0 0 0 0 3 0 6 6 6 6 10 16 10 10 10 13 19 23 42 55 68 68 74 71 71 71 77 74 77 74 71 71 74 74 77 71 61 61 48 52 52 45 39 39 35
23 19 0 0 0 0 0 0 6 6 10 6 0 6 6 16 13 6 10 6 16 19 26 52 68 68 61 65 68 68 77 74 77 74 74 71 74 74 74 65 65 52 52 45 45 42 35 32 32
16 13 3 0 0 0 0 0 3 6 6 10 0 0 6 13 6 6 6 19 19 23 29 42 52 58 68 71 71 74 77 77 74 74 74 71 68 68 61 58 55 48 48 45 42 32 32 32 35
10 3 3 0 0 0 0 0 6 3 3 10 0 0 6 6 10 10 10 13 19 19 29 29 32 42 48 61 74 81 81 84 77 81 68 71 74 77 74 68 55 52 55 45 42 39 42 42 42
10 6 3 0 0 0 0 0 3 3 3 6 6 0 6 13 13 6 6 6 10 16 19 23 26 26 26 35 58 68 74 74 77 65 74 61 32 26 58 61 61 58 52 42 42 45 52 48 42
10 0 0 0 0 0 0 0 3 3 3 6 6 6 10 13 13 13 10 6 10 13 13 13 16 13 16 32 35 35 52 48 42 35 48 19 16 16 32 71 68 68 58 58 61 65 52 45 19
6 3 0 0 0 0 0 0 3 3 6 6 6 10 13 13 13 13 13 10 13 10 13 10 10 6 6 6 16 19 16 23 19 23 23 6 6 3 19 16 35 32 52 32 39 45 29 16 10
3 3 0 0 0 0 0 0 3 3 6 10 3 10 10 10 10 10 13 6 10 6 6 6 6 6 6 6 6 10 10 13 16 19 19 13 6 6 6 10 10 10 13 10 16 16 10 10 10
0 0 3 3 0 0 0 0 3 10 10 6 10 6 13 13 6 10 3 6 6 10 6 10 6 6 6 6 10 10 10 10 19 16 13 16 10 6 6 6 6 10 6 10 13 16 13 10 10
0 0 0 3 3 3 0 3 6 10 6 6 10 6 6 6 0 3 6 6 6 6 6 10 10 13 10 10 13 16 19 23 19 16 16 19 13 3 6 3 3 10 10 13 13 13 13 13 13
0 0 0 0 0 0 0 0 6 13 6 6 6 6 6 6 3 0 6 10 10 10 19 16 16 19 16 13 13 19 19 19 16 23 23 26 13 6 6 10 10 3 10 10 10 13 6 10 16
0 0 0 0 0 0 0 0 6 10 6 6 6 10 10 10 10 6 6 10 10 13 23 19 29 19 13 13 23 26 26 26 23 26 26 26 23 23 23 16 13 13 16 16 13 6 13 13 10
0 0 0 0 0 0 0 0 10 10 10 13 10 13 10 10 16 16 13 13 13 13 19 19 26 23 23 23 29 23 26 29 29 29 26 26 32 29 26 26 23 16 16 19 26 10 13 13 10
0 0 0 0 0 3 0 0 6 10 13 10 6 13 16 16 16 16 16 19 16 16 29 26 26 39 35 32 26 16 23 29 32 29 23 26 26 32 23 23 19 16 16 19 13 16 10 10 13
0 0 0 0 0 0 0 0 3 6 10 10 6 19 13 16 13 16 19 29 29 32 32 32 32 39 39 35 26 26 26 29 26 19 19 26 26 32 29 29 26 19 23 16 16 10 10 13 10
0 0 0 0 0 0 0 0 3 6 10 10 6 10 13 13 16 16 29 42 42 39 42 42 42 42 42 35 26 29 29 26 19 19 23 26 23 23 35 19 26 26 19 19 19 16 19 16 13
0 0 0 0 0 0 3 3 6 3 3 6 6 6 10 16 23 23 26 45 48 42 45 48 55 45 42 35 35 26 23 26 23 19 26 26 26 26 26 23 23 23 23 19 19 19 16 13 16
0 0 0 0 0 0 0 0 6 3 3 3 6 6 10 19 23 26 29 39 45 45 48 48 58 58 52 52 42 26 29 29 23 19 32 29 26 29 23 19 19 23 23 23 16 16 16 16 13
0 0 0 0 0 0 0 0 0 3 3 6 10 6 10 13 23 32 32 39 45 58 58 58 65 61 68 55 48 39 32 32 29 32 32 35 39 32 35 35 26 23 26 32 19 19 13 16 16
0 0 0 0 0 0 0 0 3 10 6 6 6 10 13 16 23 29 23 29 39 52 58 61 61 65 71 68 52 39 39 39 42 39 35 39 35 39 35 45 39 29 35 32 35 23 29 26 23
0 0 0 0 0 0 0 3 3 10 10 6 6 10 13 13 19 16 29 26 39 45 58 61 65 58 61 65 65 58 42 42 42 39 42 45 39 35 35 45 48 45 35 29 29 35 39 29 26
0 0 0 0 0 0 0 3 10 10 6 10 10 13 16 13 10 26 23 29 35 48 55 61 61 61 58 68 65 65 58 58 52 39 42 48 42 35 32 39 52 48 42 45 35 45 45 42 39
0 0 0 0 0 0 0 6 6 6 0 6 10 13 13 16 19 26 29 26 26 42 55 61 61 61 58 68 71 74 71 61 55 48 55 42 39 45 45 42 48 52 48 48 35 39 42 42 35
0 0 0 0 0 0 0 3 3 6 10 6 19 19 19 16 19 19 29 32 32 42 55 55 61 58 61 68 71 77 68 58 52 52 55 58 45 45 45 42 48 55 48 45 39 39 42 45 39
0 0 0 0 0 0 0 0 3 3 6 10 16 19 23 26 29 32 35 35 39 45 45 52 58 61 61 65 61 65 61 58 58 55 55 52 55 55 45 45 48 48 42 45 42 42 39 42 39
0 0 0 0 0 0 0 3 3 6 10 13 16 19 19 23 23 32 39 29 32 39 39 52 48 52 58 65 68 61 55 52 58 58 55 52 48 52 55 48 48 45 42 39 35 39 39 39 32
Height
5894 5893 5893 5893 5892 5891 5890 5889 5889 5888 5887 5885 5884 5883 5882 5881 5882 5883 5881 5879 5879 5879 5879 5879 5879 5880 5880 5881 5882 5883 5883 5884 5885 5887 5888 5888 5889 5890 5891 5891 5892 5893 5893 5894 5895 5895 5895 5896 5896
5896 5896 5896 5895 5893 5892 5892 5891 5891 5890 5889 5887 5885 5884 5883 5882 5881 5881 5880 5880 5879 5879 5880 5880 5880 5881 5882 5882 5883 5884 5885 5886 5887 5888 5889 5890 5890 5891 5892 5893 5893 5894 5894 5895 5896 5896 5896 5897 5897
5898 5898 5899 5896 5894 5895 5894 5893 5892 5891 5890 5889 5887 5886 5885 5883 5882 5881 5881 5880 5880 5880 5880 5881 5881 5881 5882 5883 5884 5885 5886 5887 5888 5889 5890 5890 5891 5892 5893 5893 5894 5895 5895 5896 5896 5897 5897 5897 5898
5901 5901 5900 5898 5897 5897 5896 5896 5894 5893 5892 5890 5889 5887 5886 5885 5883 5882 5881 5881 5881 5881 5881 5881 5882 5882 5883 5884 5884 5885 5886 5887 5888 5889 5890 5891 5892 5893 5894 5894 5895 5896 5896 5897 5897 5897 5898 5898 5898
5904 5902 5901 5899 5899 5899 5899 5897 5896 5896 5894 5892 5890 5889 5888 5886 5884 5883 5883 5882 5882 5882 5882 5882 5882 5883 5883 5884 5885 5886 5887 5888 5889 5890 5891 5892 5892 5893 5894 5895 5896 5896 5897 5898 5898 5898 5898 5899 5899
5906 5904 5903 5902 5902 5902 5901 5900 5899 5898 5896 5894 5893 5891 5889 5888 5885 5884 5884 5884 5883 5883 5883 5883 5883 5883 5884 5885 5885 5886 5887 5888 5889 5891 5891 5892 5893 5894 5895 5896 5896 5897 5898 5898 5898 5899 5899 5899 5899
5908 5907 5905 5905 5905 5905 5904 5903 5902 5901 5899 5897 5895 5893 5892 5890 5888 5886 5886 5885 5885 5885 5884 5884 5884 5884 5884 5885 5886 5887 5888 5889 5890 5891 5892 5893 5894 5894 5895 5896 5897 5897 5898 5898 5899 5899 5899 5899 5899
5909 5909 5908 5908 5908 5908 5907 5905 5904 5903 5901 5899 5897 5895 5894 5892 5890 5889 5888 5887 5887 5886 5886 5885 5885 5885 5885 5886 5887 5888 5889 5889 5890 5891 5892 5893 5894 5895 5896 5896 5897 5898 5898 5899 5899 5900 5900 5900 5900
5911 5911 5909 5910 5911 5910 5909 5908 5907 5905 5903 5901 5899 5898 5897 5895 5893 5891 5890 5889 5888 5888 5887 5886 5886 5886 5887 5887 5888 5889 5889 5890 5891 5892 5893 5893 5894 5895 5896 5897 5897 5898 5898 5899 5899 5899 5900 5900 5900
5912 5912 5911 5912 5913 5912 5911 5910 5909 5907 5905 5903 5902 5900 5899 5898 5896 5894 5893 5891 5890 5889 5888 5888 5888 5888 5888 5888 5889 5890 5890 5891 5892 5892 5893 5894 5895 5895 5896 5897 5897 5898 5898 5899 5899 5899 5899 5900 5900
5912 5913 5913 5913 5913 5913 5912 5912 5911 5909 5908 5906 5904 5903 5901 5900 5898 5897 5895 5894 5892 5891 5890 5889 5889 5889 5889 5890 5890 5891 5891 5891 5892 5893 5893 5894 5895 5896 5896 5897 5897 5898 5898 5898 5899 5899 5899 5899 5899
5913 5913 5913 5914 5914 5913 5913 5913 5912 5911 5910 5909 5907 5905 5903 5902 5900 5899 5898 5897 5895 5894 5893 5892 5891 5891 5891 5891 5891 5891 5892 5892 5893 5893 5894 5894 5895 5895 5896 5897 5897 5897 5898 5898 5898 5898 5899 5899 5899
5913 5913 5913 5914 5915 5914 5914 5914 5913 5912 5912 5910 5909 5907 5906 5904 5903 5901 5900 5898 5897 5896 5895 5894 5893 5893 5892 5892 5892 5892 5893 5893 5893 5894 5894 5894 5895 5895 5895 5896 5897 5897 5897 5897 5898 5898 5898 5898 5898
5912 5912 5913 5914 5914 5914 5915 5914 5914 5913 5913 5912 5911 5910 5908 5906 5905 5903 5902 5900 5899 5898 5897 5896 5895 5895 5894 5894 5893 5893 5894 5894 5894 5894 5894 5895 5895 5895 5896 5896 5896 5896 5897 5897 5897 5897 5897 5897 5897
5912 5912 5913 5914 5914 5914 5915 5915 5914 5914 5914 5913 5913 5912 5910 5908 5906 5905 5904 5902 5901 5900 5899 5898 5896 5896 5895 5895 5894 5894 5894 5895 5895 5895 5895 5895 5895 5895 5895 5895 5895 5895 5896 5896 5896 5896 5896 5897 5897
5911 5912 5913 5913 5913 5914 5916 5915 5914 5914 5914 5914 5913 5913 5912 5910 5908 5906 5905 5904 5903 5902 5900 5899 5898 5898 5897 5896 5896 5895 5895 5895 5895 5895 5895 5895 5895 5895 5895 5895 5895 5894 5894 5895 5895 5895 5895 5896 5896
5909 5910 5911 5912 5912 5912 5914 5913 5913 5914 5914 5914 5913 5913 5912 5911 5909 5907 5906 5905 5904 5903 5902 5901 5900 5899 5898 5898 5897 5896 5896 5896 5896 5895 5895 5895 5895 5895 5895 5895 5894 5894 5894 5894 5894 5894 5895 5895 5895
5908 5908 5909 5910 5911 5911 5911 5912 5912 5912 5912 5913 5913 5912 5912 5911 5910 5908 5907 5906 5905 5904 5903 5902 5901 5901 5900 5899 5898 5898 5897 5897 5897 5896 5896 5895 5895 5894 5894 5895 5894 5894 5893 5893 5893 5893 5893 5893 5894
5905 5906 5907 5908 5908 5908 5908 5910 5909 5910 5910 5911 5911 5912 5911 5911 5910 5909 5908 5907 5906 5905 5904 5904 5903 5902 5901 5901 5900 5899 5899 5898 5897 5897 5896 5895 5895 5895 5895 5894 5894 5893 5893 5892 5892 5892 5892 5892 5892
5902 5903 5904 5905 5905 5906 5906 5907 5907 5908 5908 5909 5910 5910 5910 5910 5909 5908 5908 5907 5906 5906 5905 5904 5903 5903 5902 5902 5901 5900 5899 5899 5898 5897 5897 5896 5895 5895 5894 5894 5893 5893 5892 5892 5891 5891 5891 5891 5890
5898 5900 5901 5902 5903 5903 5904 5904 5904 5905 5906 5906 5907 5908 5909 5908 5908 5907 5907 5906 5905 5905 5905 5904 5903 5903 5902 5902 5901 5900 5900 5899 5898 5897 5897 5896 5895 5894 5894 5893 5893 5892 5892 5891 5890 5890 5889 5889 5889
5894 5897 5898 5899 5899 5900 5901 5901 5902 5901 5902 5902 5903 5904 5905 5906 5906 5906 5905 5905 5904 5904 5903 5903 5903 5902 5902 5901 5901 5900 5899 5899 5898 5897 5896 5895 5894 5894 5893 5892 5892 5891 5890 5890 5889 5888 5888 5888 5887
5890 5892 5893 5894 5894 5896 5897 5897 5898 5898 5898 5899 5900 5900 5901 5902 5903 5903 5903 5903 5903 5903 5902 5902 5902 5901 5901 5900 5900 5899 5898 5898 5897 5896 5895 5894 5893 5892 5892 5891 5890 5889 5888 5888 5887 5887 5886 5886 5886
5886 5887 5887 5888 5889 5891 5893 5893 5894 5894 5895 5895 5896 5896 5898 5899 5900 5900 5900 5900 5901 5901 5900 5900 5900 5900 5899 5899 5898 5897 5896 5896 5895 5895 5894 5893 5892 5891 5890 5889 5888 5887 5886 5886 5885 5884 5884 5884 5883
5881 5883 5883 5883 5884 5886 5888 5888 5890 5891 5891 5891 5891 5892 5894 5895 5895 5896 5896 5897 5897 5897 5897 5897 5897 5897 5897 5896 5895 5895 5894 5893 5893 5892 5891 5891 5890 5888 5887 5886 5885 5885 5884 5883 5882 5882 5881 5880 5880
5876 5878 5879 5879 5880 5882 5883 5883 5886 5885 5886 5886 5886 5888 5889 5890 5891 5892 5892 5893 5894 5894 5894 5894 5894 5893 5893 5893 5892 5892 5891 5890 5889 5888 5888 5887 5887 5886 5884 5883 5882 5882 5881 5880 5879 5878 5878 5877 5876
5871 5872 5873 5874 5874 5876 5877 5878 5880 5880 5881 5882 5882 5883 5884 5886 5887 5888 5888 5889 5890 5890 5890 5890 5890 5889 5889 5889 5888 5888 5888 5887 5886 5885 5884 5883 5882 5882 5881 5880 5879 5878 5877 5877 5876 5875 5874 5873 5872
5866 5867 5868 5869 5869 5869 5871 5872 5874 5875 5876 5877 5878 5878 5879 5880 5881 5882 5884 5884 5884 5885 5885 5885 5885 5884 5884 5884 5883 5883 5883 5883 5882 5880 5880 5879 5878 5878 5877 5876 5875 5874 5874 5873 5872 5871 5870 5869 5868
5861 5862 5862 5863 5863 5864 5865 5869 5869 5870 5870 5871 5872 5873 5874 5874 5875 5876 5877 5878 5878 5879 5879 5879 5879 5878 5878 5878 5878 5878 5877 5877 5876 5876 5875 5874 5873 5873 5872 5871 5870 5870 5869 5868 5867 5866 5866 5865 5863
5855 5855 5857 5858 5858 5859 5859 5864 5863 5864 5864 5864 5865 5866 5867 5867 5867 5868 5869 5871 5871 5872 5873 5873 5873 5872 5872 5872 5872 5872 5872 5871 5871 5870 5869 5869 5868 5867 5866 5865 5865 5864 5863 5863 5862 5861 5861 5860 5858
Wind_Speed
19 20 19 19 20 20 20 19 17 15 13 12 11 11 10 8 7 6 5 5 5 6 6 7 6 7 7 7 7 8 8 9 8 8 9 9 9 9 11 11 10 10 10 10 9 9 9 9 9
19 19 18 19 20 19 21 20 18 16 14 13 12 11 10 9 7 7 6 5 6 6 6 6 6 7 7 7 7 6 8 8 8 8 8 8 8 9 10 10 10 10 9 9 9 8 8 8 8
19 18 18 20 21 20 20 20 19 17 16 14 13 13 11 9 8 7 6 6 6 6 6 6 6 7 7 6 6 6 7 8 8 7 8 8 8 8 9 8 8 9 9 9 8 7 7 7 7
20 19 19 21 22 21 20 20 19 17 16 16 15 14 12 10 9 9 8 7 7 7 6 6 6 7 7 6 6 7 7 8 8 8 7 7 8 8 8 8 9 9 9 8 8 7 7 7 6
19 19 20 21 21 21 20 19 19 16 16 17 17 15 13 12 11 10 10 8 8 7 7 6 6 6 6 6 7 7 8 8 8 8 7 7 7 7 8 8 8 8 8 7 7 7 6 6 5
17 18 20 20 20 20 19 19 18 17 16 17 18 17 14 13 12 12 11 10 9 8 7 7 7 6 6 7 7 6 7 8 8 7 6 6 6 7 7 7 7 7 6 6 6 6 5 5 4
15 17 18 18 18 18 19 18 17 17 17 18 18 18 17 15 13 12 12 11 10 9 8 7 7 7 7 7 7 6 7 7 8 7 6 6 6 7 7 7 6 6 6 5 5 5 4 4 3
13 14 16 16 16 16 17 17 17 18 18 18 19 19 18 17 15 14 13 12 10 9 8 8 8 7 7 7 6 6 6 6 7 7 6 6 6 6 6 6 6 6 5 5 4 4 3 3 3
11 12 13 13 13 14 15 15 16 17 18 19 19 19 18 18 16 15 14 13 12 10 9 9 8 8 7 7 6 6 6 7 7 7 7 7 6 6 6 6 6 5 5 4 4 3 3 3 2
9 11 11 10 10 11 13 14 15 16 18 18 19 18 18 18 17 16 15 14 13 13 11 9 9 9 8 7 7 6 6 6 7 7 7 6 6 6 6 5 5 5 5 4 3 3 3 2 2
7 7 8 8 9 10 11 12 14 15 16 17 18 18 17 17 17 17 16 15 14 14 13 12 10 9 8 7 7 6 6 7 6 6 6 6 6 6 5 5 5 4 4 3 3 3 3 3 2
5 6 6 7 7 7 9 10 12 14 15 15 16 16 17 17 17 17 17 16 15 14 14 13 11 10 8 7 7 7 7 7 7 6 6 5 5 5 6 5 4 4 3 3 3 3 3 3 3
6 7 7 7 5 6 8 9 11 12 13 14 15 15 15 15 16 16 17 16 15 15 14 13 12 11 9 8 7 7 7 6 6 6 5 5 5 4 5 5 5 4 4 3 3 3 3 3 3
7 7 7 6 5 5 6 7 9 10 11 13 14 14 13 14 15 15 16 16 16 15 14 13 12 11 11 10 8 7 7 7 6 6 5 4 4 4 4 4 4 4 4 4 3 3 3 4 3
7 7 5 5 3 3 3 4 6 8 10 11 12 12 13 13 13 14 14 15 15 15 14 13 12 11 11 10 9 8 8 7 6 5 4 4 3 3 3 3 3 4 4 4 4 3 3 4 3
8 7 7 4 2 1 1 2 3 5 8 9 10 10 11 12 12 12 12 13 13 13 13 13 12 12 11 11 10 9 8 7 5 4 4 4 4 4 3 2 2 3 4 4 4 4 3 4 4
10 9 7 5 2 1 3 3 3 5 7 8 10 10 10 10 11 11 11 11 12 12 12 12 12 12 11 11 10 9 9 7 6 5 4 3 3 3 2 2 1 2 3 3 3 4 4 4 4
11 10 7 6 5 5 7 6 6 6 7 8 9 8 9 9 9 10 9 9 10 10 10 10 10 10 10 10 10 9 8 7 6 5 4 3 2 2 2 1 0 1 2 3 4 4 4 5 5
13 12 10 9 8 8 7 7 8 7 6 6 8 7 7 8 8 8 8 8 8 8 8 8 9 9 9 9 9 8 7 7 6 6 6 4 3 2 2 1 1 1 2 3 4 4 5 5 6
14 14 12 11 12 10 10 11 10 9 8 7 8 8 7 6 7 7 6 6 6 6 6 6 7 8 8 8 8 8 7 6 5 5 4 4 3 3 2 2 2 2 2 2 3 4 4 5 6
15 15 14 14 13 13 13 13 13 11 9 9 9 9 7 8 7 7 6 5 5 4 4 4 5 6 6 6 6 6 6 5 5 5 4 3 2 2 2 2 2 3 3 3 3 3 4 6 6
16 17 17 16 16 15 16 16 15 13 12 11 10 10 9 8 8 8 7 6 5 4 4 3 4 5 5 5 5 5 5 5 4 4 4 4 3 2 2 3 3 4 4 5 5 5 5 6 7
16 17 18 17 18 17 16 16 15 15 14 12 12 12 10 10 9 9 8 8 7 6 6 5 5 5 5 5 4 4 5 5 5 5 5 4 4 4 4 5 5 5 6 6 7 7 7 7 8
17 18 18 19 18 17 16 16 15 14 14 12 13 13 12 11 9 9 9 9 8 8 8 8 7 7 7 6 6 5 5 5 5 5 6 6 6 6 6 6 6 6 7 7 8 8 8 9 9
18 18 19 19 19 18 17 18 16 15 16 15 14 15 14 13 12 11 10 9 10 10 10 11 11 10 10 9 9 9 8 7 7 7 7 7 7 7 7 8 8 8 8 9 9 10 10 10 11
18 20 20 19 19 18 20 20 18 18 18 17 17 17 17 15 14 13 12 11 12 12 13 14 14 13 12 12 12 12 12 11 10 10 10 10 10 10 9 9 9 9 9 10 10 11 11 12 13
18 20 20 21 20 21 21 22 21 20 19 18 18 18 18 18 17 16 16 15 15 15 15 16 16 15 14 14 14 15 15 15 14 13 13 13 12 11 11 11 11 10 11 11 11 11 11 12 13
20 20 21 22 23 23 22 23 22 21 21 21 20 20 21 21 20 20 20 19 18 18 18 18 17 17 17 16 17 17 17 17 17 16 16 16 15 14 13 13 13 13 14 14 13 13 13 13 14
21 23 23 23 24 25 24 23 23 23 22 23 22 23 23 24 23 23 23 22 21 21 21 21 20 19 18 18 18 18 18 19 19 19 19 19 18 17 17 17 17 16 16 15 15 15 16 16 16
23 23 24 25 25 26 26 24 23 24 23 24 24 24 25 25 24 23 24 25 24 23 23 23 22 21 20 19 19 19 20 21 21 21 21 21 21 21 20 20 19 19 18 17 17 18 18 18 17
Wind_Direction
78 75 71 67 63 56 51 51 50 51 51 52 49 44 44 52 55 66 70 73 81 95 104 101 99 108 119 126 129 131 132 134 139 141 143 144 143 140 139 137 136 135 134 130 129 131 126 124 121
76 72 69 68 64 54 48 48 47 50 50 52 51 49 48 50 54 58 65 73 84 94 102 99 98 109 116 120 120 129 134 138 139 142 149 149 146 141 139 140 138 135 136 136 133 135 129 126 124
72 71 65 63 59 54 48 46 45 45 46 49 49 50 50 52 54 59 65 72 83 94 98 95 100 112 117 122 131 132 136 137 139 142 147 147 146 144 143 140 138 134 134 136 138 135 131 128 127
74 70 62 57 53 50 45 45 47 46 46 47 48 49 50 51 55 58 64 70 83 89 93 97 107 117 124 129 134 135 139 136 138 139 145 145 143 140 141 141 140 138 138 138 135 137 131 131 130
69 66 58 52 49 47 44 43 45 44 45 47 48 47 49 52 57 62 68 72 78 84 90 94 106 116 124 127 131 134 140 140 140 138 135 141 141 144 141 144 143 144 145 141 136 134 134 132 132
68 65 57 51 46 44 44 44 43 44 45 48 49 49 49 54 59 61 65 68 74 85 88 89 102 113 122 124 128 135 144 145 142 141 137 138 139 142 144 142 150 150 149 148 143 137 139 138 130
70 68 59 53 45 41 42 44 44 46 46 48 50 50 51 56 59 61 64 66 72 81 85 86 97 105 119 127 131 133 140 147 146 147 145 148 146 140 142 146 149 153 153 152 150 147 148 142 132
73 68 61 55 48 40 39 39 44 47 48 49 51 52 50 56 60 61 63 66 70 73 76 86 94 98 108 121 127 129 133 149 149 148 148 147 148 150 150 154 155 160 163 163 162 161 159 153 154
77 73 65 55 48 43 40 41 44 45 46 47 50 52 50 54 59 60 61 63 65 67 70 79 90 97 101 109 119 125 131 138 146 153 150 146 146 150 157 161 164 167 170 174 179 186 188 179 175
76 72 70 56 44 44 42 42 44 43 43 44 48 50 51 52 55 58 60 61 61 63 67 77 86 94 100 106 114 119 128 136 141 149 158 160 155 155 160 169 174 175 177 185 196 195 191 185 188
75 71 71 58 46 40 42 38 39 38 41 43 45 47 48 50 52 56 60 62 61 61 65 73 84 87 94 101 105 112 123 131 141 148 153 158 162 167 169 174 174 174 175 187 195 196 200 205 213
107 93 88 81 53 39 42 42 36 36 39 40 42 43 44 47 49 51 56 60 61 62 64 68 74 77 83 93 102 112 118 124 136 140 143 155 164 176 184 189 189 190 186 185 191 203 214 219 228
149 121 106 91 61 44 38 44 40 34 35 36 37 39 39 42 47 49 53 57 59 61 63 67 69 70 74 84 89 101 112 116 124 136 139 148 161 172 185 186 194 202 203 204 213 222 227 226 230
171 147 130 120 101 59 35 39 38 27 27 29 28 31 35 39 43 47 49 53 55 57 58 62 68 71 73 77 82 92 102 105 111 120 126 131 142 147 165 185 194 201 205 212 215 223 227 237 236
182 156 139 134 128 73 28 23 29 15 13 16 19 23 28 33 38 43 46 48 51 54 55 56 61 66 70 72 75 82 94 99 103 110 121 120 114 116 131 163 182 194 205 215 221 232 244 243 244
186 175 154 140 137 148 289 328 0 3 360 0 8 15 22 27 33 38 41 44 48 51 53 54 57 62 65 68 72 76 86 87 86 89 97 114 107 108 111 131 155 188 205 218 233 244 250 252 250
194 186 180 168 164 231 260 279 311 336 342 347 353 360 12 21 27 32 36 39 44 47 49 51 55 57 61 64 67 70 74 73 67 72 82 97 94 101 110 119 141 170 200 218 238 245 253 253 247
199 197 198 200 195 233 251 253 268 296 320 333 341 354 4 11 21 25 27 30 38 43 46 48 53 55 57 57 59 61 65 63 58 59 70 91 95 95 108 93 60 241 233 234 237 247 251 250 249
210 209 212 214 214 240 252 254 264 277 292 315 325 334 352 3 11 16 17 20 27 34 41 44 48 50 52 53 55 55 57 55 57 63 67 69 71 61 57 34 9 331 299 260 254 255 252 252 250
221 223 227 232 223 238 245 243 247 259 272 289 305 316 328 341 355 360 359 0 7 16 30 35 40 40 40 44 46 47 47 46 50 51 45 50 51 45 40 32 19 1 347 319 283 274 267 264 261
225 234 236 241 232 237 245 242 240 250 264 269 283 297 307 325 331 339 339 337 337 344 4 18 25 29 28 28 29 33 35 32 29 26 26 19 17 18 15 4 353 343 341 333 321 288 280 280 276
233 240 243 243 239 240 238 240 242 248 250 252 262 278 286 301 311 320 327 327 318 311 320 339 348 357 2 6 11 13 15 16 16 11 5 359 353 344 330 334 328 319 320 318 315 309 291 286 285
237 241 246 246 243 241 241 244 247 245 246 249 255 267 272 284 298 305 312 313 305 296 294 302 312 321 326 330 337 344 347 350 352 350 346 340 332 322 316 317 312 304 304 307 305 299 296 288 286
237 242 247 248 245 244 243 248 251 250 249 254 257 263 264 270 285 292 295 299 294 289 285 284 293 298 301 302 303 306 313 321 324 326 328 325 321 314 310 311 308 305 302 304 304 297 293 290 283
239 243 246 248 245 245 244 248 253 254 253 252 254 258 262 265 277 276 271 280 283 285 284 280 281 286 289 291 291 290 292 299 301 303 306 306 305 301 299 299 297 299 299 300 300 296 291 289 285
242 245 246 250 249 245 243 249 253 254 253 254 256 261 263 267 271 271 268 276 277 282 282 282 277 277 279 284 287 288 288 288 288 290 295 296 295 292 292 292 291 292 294 298 298 294 290 286 285
246 244 248 253 253 253 248 247 250 253 255 257 257 264 263 262 264 268 269 272 273 276 280 282 281 277 276 278 281 282 284 285 284 286 288 290 289 288 287 287 287 287 288 290 294 295 292 286 285
244 245 246 250 254 255 254 251 250 252 253 256 258 257 258 258 260 264 266 269 270 270 273 278 278 276 276 275 275 277 278 280 280 282 281 282 282 283 283 280 281 283 284 285 287 290 292 291 288
241 244 242 246 251 256 260 255 255 258 261 261 259 259 258 257 257 261 264 267 269 270 271 274 275 274 275 275 275 274 276 275 276 278 279 280 278 279 280 279 280 281 279 281 284 286 287 288 288
238 239 241 246 250 255 259 259 257 261 264 264 261 261 258 261 262 262 264 268 269 269 270 271 273 274 274 273 274 274 274 275 276 277 277 278 278 278 280 280 278 278 278 279 282 284 284 284 284